Vertical_Velocity
2 0 1 1 2 -2 -4 -4 -3 -3 -3 -2 -2 2 1 2 2 1 -1 -2 -1 -1 -1 0 0 2 -0 -1 -1 -1 -1 0 0 -3 -5 -2 -0 -1 1 -0 -2 -2 -1
1 1 1 4 1 -2 -0 -2 1 1 3 1 -1 -5 -8 -3 0 -2 -0 3 2 -0 -2 -3 0 -0 -0 -1 -1 -1 -1 -1 -2 -1 -1 -5 -2 -1 -0 -0 3 0 -0
3 3 -2 -1 0 1 0 1 -1 -4 -0 -3 -0 0 -0 0 -1 -3 -0 0 -2 -3 -1 -1 -4 -2 -0 -1 -0 -0 -1 0 -2 -2 -1 0 -1 -2 -1 -1 -2 -1 0
-1 -2 2 3 -0 -1 -0 2 0 0 -0 -2 -2 -1 -1 -0 -1 -2 -4 -5 -3 -1 -2 -1 1 0 -0 -2 -2 -2 -1 -1 -1 -1 -2 -2 -2 -1 -1 -1 -2 -2 -0
-1 -1 2 -0 2 2 1 1 1 0 0 2 0 -1 -4 -4 -2 -2 -1 -0 -2 -3 -2 -1 -1 2 1 -0 -1 -1 -1 -0 -1 -1 -3 -3 -1 -2 0 -1 -1 -2 -2
-1 -1 -0 1 1 -1 -1 -1 -1 -0 1 -3 -1 -2 -1 3 1 -2 -0 3 0 1 -1 0 -2 -2 0 -1 -2 -1 -0 -1 -0 0 -2 -2 -1 -2 -1 -0 -1 0 -6
-4 1 1 2 -3 -2 -1 -1 -1 -2 -3 -3 -2 -4 -0 1 -2 -1 -1 2 4 1 0 0 2 -0 -0 -1 -2 -1 -1 -2 -1 -1 -0 -1 -1 0 -1 -1 -3 -1 -2
-1 3 1 -1 0 -3 -0 -1 -1 -1 0 1 -1 -2 -1 -1 -2 -1 2 4 1 3 1 1 -2 2 -1 0 2 -0 -1 -2 -1 -3 -1 -2 -1 -0 -1 -1 -1 -1 -1
-0 1 1 -1 -3 -1 -2 -2 -1 -3 -1 -1 -2 -2 -1 -3 -0 -6 1 -2 1 1 1 2 2 1 0 -2 2 4 -0 -1 -1 -0 -1 -1 -1 -1 -1 -1 -3 -3 -1
-4 -1 -1 -1 -2 -1 -1 1 -2 -3 -2 -1 -5 -1 -0 -3 -4 -1 1 1 3 3 -0 0 -0 1 0 -2 -1 2 1 -0 -1 0 0 0 -1 -2 -1 -1 -0 -1 -1
-1 2 1 1 0 -0 1 -1 -5 -3 -2 -4 -2 1 -3 -3 -2 0 -0 4 -1 2 3 -0 2 -1 0 0 -1 1 1 0 -1 -2 -2 -2 -2 -1 -1 -3 -2 -1 -1
1 0 1 0 0 -2 -3 -5 -4 -3 -2 -0 0 1 -0 -5 -0 -2 -1 3 1 1 2 2 0 0 -0 0 -0 -0 1 -0 -1 -1 -1 -1 -1 -2 -2 -2 -1 -1 -1
-2 1 2 -0 -1 -1 -2 -1 -0 0 -1 -1 -1 -1 -1 0 -1 -4 1 -0 2 0 2 1 1 1 -0 -0 1 0 0 0 -0 -1 -1 -0 -0 -0 -0 -0 -1 -1 -0
-1 -2 1 0 -1 -1 -2 -2 -1 0 2 -1 -0 -2 -2 -2 -3 -1 1 1 -1 1 2 3 2 -1 -0 0 0 1 1 0 0 -1 -1 -0 -0 0 -1 -1 -1 -2 -1
-1 -1 -3 -2 -3 -1 -2 0 2 2 -2 -3 -0 -1 -1 -1 1 -3 -1 1 -1 0 1 1 1 1 -0 -1 -1 0 0 -1 -1 -1 -2 -1 -0 1 -0 0 -1 -2 -2
-2 -1 -1 0 2 -1 -1 -0 -2 -1 -0 -1 -0 -2 -1 0 -1 -1 -1 -1 -1 1 0 0 -1 -1 -1 -1 -1 0 -1 -1 -1 -0 -0 0 1 1 -1 -1 -2 -3 -3
-3 -2 -2 -2 -0 -1 -1 -0 -3 -0 -4 -2 -2 2 1 -4 -3 -0 -0 -2 -2 -0 -1 -1 -1 -1 -1 0 -0 -1 -1 -1 -1 -1 -1 -2 -1 -1 -1 -1 -1 -2 -3
-2 -0 0 -1 -1 1 -2 -1 -2 -2 -2 1 3 -0 -1 -2 0 1 -1 -1 1 -0 -0 -0 1 1 1 2 1 0 -0 -0 -0 0 1 -0 -0 -0 -0 0 -0 -1 -1
-1 -1 -1 -2 -3 -1 -0 -1 0 -1 -0 -1 -1 -0 -0 -1 1 -1 -1 -0 0 -1 -0 -2 -0 -0 1 2 1 0 1 2 1 0 0 1 -0 -1 -1 -1 -1 -1 -1
-3 -0 1 -3 -2 -1 -1 -0 0 3 1 2 -1 -2 -2 7 -4 -1 0 1 -1 -1 -1 1 1 1 1 1 0 -0 -0 0 1 -0 0 1 -0 0 -1 -1 -2 -2 -0
-3 -1 -1 -1 0 -1 -1 -1 -1 1 1 2 -1 -2 1 1 -1 0 -0 0 -1 -1 0 -0 -1 -0 -0 -0 -1 1 -0 -1 1 -1 1 2 1 -0 -1 -1 -1 -1 -1
1 -1 -1 0 -1 0 3 2 2 4 -2 -4 -3 -5 0 -6 2 1 -1 1 -0 2 1 -0 -1 -2 -0 0 -0 1 1 -0 -2 -0 0 -0 1 0 -1 -1 -0 0 -0
0 -2 -1 0 1 3 2 0 -1 1 1 3 -0 1 -1 1 2 -2 -1 3 5 2 1 0 -1 1 -2 1 1 1 0 0 -2 -1 0 -0 -1 -0 -1 -1 -1 0 -2
-1 -2 -2 -1 1 -3 -0 -0 -3 0 -1 -0 -1 -0 -2 1 1 -1 2 -0 3 -2 1 -1 1 4 0 -2 0 3 3 -0 -0 -0 -1 1 1 0 -0 -0 -1 -0 -2
-1 -0 -0 -1 -1 0 -1 -2 -2 1 -3 -2 -0 0 -0 1 0 -2 2 1 -1 2 2 1 -1 -1 -0 1 -0 0 -1 9 1 -0 -1 -2 3 0 1 -1 -1 -0 -1
-1 -2 -1 -1 -1 -1 -1 -2 -2 -1 -2 -2 -0 0 0 -1 1 -1 1 -4 2 -4 2 -1 2 1 2 1 -3 -1 2 2 1 1 -2 0 3 0 -2 -0 -1 -1 -0
Height
5898 5898 5899 5899 5898 5896 5894 5894 5892 5890 5889 5888 5888 5889 5888 5888 5886 5885 5885 5884 5883 5882 5882 5881 5881 5880 5879 5879 5878 5877 5876 5875 5873 5871 5871 5871 5872 5872 5872 5871 5870 5869 5868
5897 5896 5896 5896 5895 5893 5892 5890 5888 5887 5885 5885 5884 5882 5882 5881 5881 5880 5881 5881 5880 5879 5878 5876 5875 5875 5875 5874 5872 5872 5871 5870 5868 5866 5865 5865 5865 5866 5866 5865 5864 5863 5862
5895 5894 5893 5892 5891 5890 5889 5887 5884 5883 5882 5881 5879 5879 5878 5878 5876 5874 5874 5874 5874 5873 5872 5871 5870 5869 5868 5867 5866 5865 5864 5863 5861 5859 5858 5858 5858 5858 5858 5857 5857 5856 5855
5893 5892 5891 5889 5887 5887 5885 5883 5881 5879 5876 5874 5873 5872 5872 5873 5870 5869 5869 5868 5867 5866 5865 5864 5863 5862 5862 5860 5859 5857 5856 5855 5854 5853 5851 5849 5849 5849 5849 5849 5848 5848 5847
5889 5888 5887 5886 5886 5883 5882 5879 5876 5875 5873 5871 5870 5868 5868 5866 5863 5862 5862 5861 5861 5859 5859 5858 5856 5854 5853 5852 5851 5849 5848 5847 5846 5846 5844 5843 5842 5841 5840 5840 5840 5840 5840
5886 5885 5883 5882 5881 5879 5876 5873 5871 5869 5867 5865 5865 5862 5861 5860 5857 5854 5853 5853 5852 5851 5851 5850 5849 5847 5845 5843 5842 5841 5840 5839 5838 5837 5836 5836 5835 5835 5834 5833 5833 5832 5832
5875 5875 5876 5875 5872 5871 5869 5868 5867 5865 5864 5863 5860 5857 5856 5853 5849 5846 5844 5843 5843 5843 5842 5842 5840 5839 5838 5836 5834 5833 5831 5830 5829 5828 5828 5827 5826 5827 5827 5826 5825 5823 5822
5867 5868 5868 5867 5865 5864 5862 5861 5860 5859 5857 5855 5852 5850 5848 5846 5843 5839 5836 5834 5833 5833 5833 5831 5832 5830 5829 5828 5827 5825 5824 5822 5821 5821 5820 5819 5819 5818 5818 5817 5815 5814 5812
5865 5865 5864 5863 5860 5858 5856 5855 5853 5850 5848 5846 5843 5842 5839 5837 5833 5831 5829 5827 5825 5824 5823 5822 5821 5822 5821 5820 5819 5818 5817 5816 5814 5814 5813 5812 5811 5810 5809 5807 5805 5803 5802
5861 5860 5858 5856 5854 5850 5848 5846 5843 5841 5839 5837 5836 5833 5830 5827 5824 5821 5819 5819 5817 5815 5815 5814 5813 5814 5814 5812 5811 5810 5809 5808 5807 5806 5805 5804 5803 5801 5799 5797 5795 5794 5792
5855 5852 5849 5848 5845 5842 5840 5837 5835 5832 5830 5828 5826 5823 5819 5817 5814 5812 5810 5810 5808 5807 5806 5805 5806 5805 5805 5804 5803 5802 5802 5801 5799 5799 5798 5796 5794 5792 5790 5787 5786 5784 5783
5847 5845 5842 5840 5837 5834 5831 5828 5826 5823 5820 5818 5814 5811 5809 5807 5804 5803 5802 5800 5799 5798 5797 5797 5797 5796 5796 5795 5794 5794 5793 5792 5791 5790 5789 5787 5785 5782 5780 5778 5776 5774 5773
5838 5837 5834 5831 5828 5824 5821 5818 5816 5812 5809 5806 5803 5800 5798 5797 5795 5794 5793 5791 5789 5789 5789 5788 5788 5787 5786 5786 5785 5784 5783 5783 5781 5780 5779 5777 5775 5773 5771 5769 5766 5765 5763
5828 5827 5824 5822 5819 5816 5812 5809 5805 5802 5799 5796 5793 5791 5789 5787 5786 5786 5784 5782 5780 5780 5780 5779 5778 5777 5776 5776 5775 5774 5773 5772 5771 5770 5769 5767 5765 5763 5761 5759 5757 5755 5754
5817 5817 5815 5812 5808 5805 5801 5798 5795 5792 5790 5787 5784 5782 5780 5779 5777 5777 5775 5772 5771 5771 5771 5770 5769 5768 5766 5765 5764 5763 5762 5761 5760 5758 5757 5756 5754 5753 5751 5750 5748 5746 5744
5808 5806 5804 5801 5798 5795 5792 5790 5787 5784 5782 5779 5776 5775 5773 5770 5769 5768 5766 5764 5763 5763 5762 5760 5759 5757 5756 5754 5753 5752 5751 5750 5748 5747 5746 5745 5744 5743 5741 5739 5737 5735 5734
5800 5798 5796 5793 5789 5787 5785 5782 5778 5776 5773 5771 5769 5767 5765 5762 5761 5759 5757 5755 5754 5753 5751 5750 5748 5747 5745 5744 5742 5741 5740 5739 5737 5737 5736 5735 5733 5732 5730 5728 5726 5724 5722
5793 5790 5787 5784 5781 5779 5776 5772 5770 5768 5766 5763 5760 5757 5756 5754 5752 5749 5747 5745 5744 5742 5739 5738 5737 5736 5734 5733 5732 5730 5729 5728 5727 5726 5725 5724 5722 5721 5719 5717 5714 5713 5711
5782 5780 5777 5775 5772 5770 5767 5764 5761 5758 5757 5754 5751 5748 5747 5744 5741 5737 5735 5733 5731 5729 5728 5727 5726 5724 5723 5721 5720 5719 5718 5717 5716 5715 5713 5713 5711 5709 5707 5705 5703 5702 5700
5773 5771 5770 5767 5763 5760 5757 5754 5752 5749 5747 5744 5741 5737 5734 5734 5729 5726 5724 5722 5720 5718 5716 5715 5714 5712 5710 5709 5708 5707 5706 5705 5704 5703 5702 5701 5700 5698 5696 5695 5693 5691 5689
5764 5762 5759 5755 5752 5749 5745 5743 5741 5739 5737 5734 5730 5726 5723 5720 5718 5715 5713 5710 5708 5706 5705 5703 5702 5700 5698 5697 5696 5695 5694 5692 5692 5691 5690 5689 5688 5687 5685 5683 5681 5680 5678
5755 5751 5747 5744 5740 5737 5734 5731 5729 5727 5724 5720 5717 5714 5711 5707 5704 5703 5700 5698 5696 5695 5693 5691 5690 5688 5686 5684 5683 5682 5681 5680 5679 5679 5678 5677 5676 5675 5674 5672 5670 5669 5667
5742 5738 5734 5731 5728 5724 5721 5718 5716 5713 5710 5708 5705 5702 5699 5697 5694 5690 5688 5686 5684 5682 5680 5679 5677 5675 5673 5672 5670 5669 5669 5669 5667 5666 5666 5665 5664 5663 5662 5660 5659 5657 5656
5729 5724 5721 5718 5714 5710 5707 5703 5700 5697 5694 5691 5688 5685 5683 5681 5678 5676 5674 5672 5671 5669 5667 5665 5664 5663 5660 5659 5658 5657 5657 5656 5656 5654 5653 5653 5653 5652 5651 5649 5648 5647 5645
5715 5711 5707 5703 5699 5695 5691 5688 5684 5681 5677 5674 5672 5669 5667 5664 5662 5660 5659 5656 5654 5653 5651 5650 5648 5648 5647 5646 5644 5644 5643 5644 5644 5643 5642 5641 5642 5642 5641 5639 5638 5636 5635
5703 5698 5694 5689 5685 5681 5677 5673 5670 5666 5662 5659 5656 5653 5650 5648 5645 5642 5641 5638 5636 5634 5633 5632 5631 5630 5629 5629 5628 5628 5629 5628 5629 5629 5630 5630 5631 5630 5630 5629 5627 5626 5624